Regional Weather Roundup
Issued by NWS

Home | Current Version | Previous Version | Text Only | Print | Product List | Glossary On
Versions: 1 2 3 4 5 6 7 8 9 10 11 12 13 14 15 16 17 18 19 20 21 22 23 24 25 26 27 28 29 30 31 32 33 34 35 36 37 38 39 40 41 42 43 44 45 46 47 48 49 50
241
ASUS44 KFWD 310615
RWRTX
NORTH TEXAS HOURLY WEATHER ROUNDUP
NATIONAL WEATHER SERVICE FORT WORTH TX
100 AM CDT TUE MAY 31 2016

NOTE: "FAIR" INDICATES FEW OR NO CLOUDS BELOW 12,000 FEET WITH NO
SIGNIFICANT WEATHER AND/OR OBSTRUCTIONS TO VISIBILITY.

TXZ118-119-310700-
DALLAS/FORT WORTH METROPLEX

CITY           SKY/WX    TMP DP  RH WIND       PRES   REMARKS
DFW AIRPORT    CLOUDY    77  67  71 S5        29.91S
6HR MIN TEMP:  75; 6HR MAX TEMP:  84;

DALLAS LOVE    CLOUDY    79  66  64 SE3       29.91S
6HR MIN TEMP:  77; 6HR MAX TEMP:  85;

FTW MEACHAM    CLOUDY    77  66  68 SE6       29.91S
6HR MIN TEMP:  77; 6HR MAX TEMP:  83;

DAL-EXECUTIVE  CLOUDY    74  67  78 S5        29.91S
6HR MIN TEMP:  72; 6HR MAX TEMP:  84;

FTW-ALLIANCE   CLOUDY    74  67  78 CALM      29.91S
6HR MIN TEMP:  70; 6HR MAX TEMP:  83;

FTW-NAS-JRB    CLOUDY    76  66  71 SE3       29.91F
6HR MIN TEMP:  75; 6HR MAX TEMP:  83;

FTW-SPINKS     MOCLDY    70  67  90 CALM      29.93S
6HR MIN TEMP:  70; 6HR MAX TEMP:  82;

ARLINGTON      CLOUDY    78  68  71 SE3       29.92S
6HR MIN TEMP:  75; 6HR MAX TEMP:  85;

GRAND PRAIRIE  CLOUDY    76  65  68 CALM      29.93S
6HR MIN TEMP:  75; 6HR MAX TEMP:  81;

ADDISON        CLOUDY    77  69  76 S3        29.93S
6HR MIN TEMP:  76; 6HR MAX TEMP:  83;

MESQUITE       CLOUDY    73  71  93 CALM      29.91F
6HR MIN TEMP:  71; 6HR MAX TEMP:  82;

LANCASTER      CLOUDY    73  68  83 CALM      29.92F
6HR MIN TEMP:  72; 6HR MAX TEMP:  82;

$$

TXZ091>094-102>105-117-120-121-131>134-310700-
NORTH CENTRAL TEXAS

CITY           SKY/WX    TMP DP  RH WIND       PRES   REMARKS
SHRMAN/DENISON CLOUDY    69  60  71 SE6       29.91F
6HR MIN TEMP:  65; 6HR MAX TEMP:  77;

GAINESVILLE    CLOUDY    69  65  88 CALM      29.93S
6HR MIN TEMP:  69; 6HR MAX TEMP:  79;

BOWIE          CLOUDY    69  66  90 SE3       29.91F
6HR MIN TEMP:  69; 6HR MAX TEMP:  80;

BRIDGEPORT     CLOUDY    73  69  87 S6        29.93S
6HR MIN TEMP:  72; 6HR MAX TEMP:  80;

DECATUR        CLOUDY    74  64  72 SE5       29.92S
6HR MIN TEMP:  70; 6HR MAX TEMP:  80; 6HR PCP:  0.02;

DENTON         CLOUDY    71  68  90 S3        29.90F
6HR MIN TEMP:  71; 6HR MAX TEMP:  81;

MCKINNEY       CLOUDY    71  68  90 CALM      29.91F
6HR MIN TEMP:  69; 6HR MAX TEMP:  82;

GREENVILLE     MOCLDY    70  66  88 CALM      29.92S
ROCKWALL       CLOUDY    73  67  82 SE6       29.90S
6HR MIN TEMP:  71; 6HR MAX TEMP:  82;

TERRELL        CLOUDY    73  68  84 CALM      29.92S
6HR MIN TEMP:  71; 6HR MAX TEMP:  82;

WAXAHACHIE     CLOUDY    73  69  86 CALM      29.93S
6HR MIN TEMP:  73; 6HR MAX TEMP:  82;

CLEBURNE       PTCLDY    73  70  88 SE7       29.94S
GRANBURY       PTCLDY    75  68  78 SE3       29.93R
6HR MIN TEMP:  74; 6HR MAX TEMP:  83;

$$

TXZ083>090-098>101-113>116-127>130-139>142-154-155-310700-
WESTERN NORTH TEXAS

CITY           SKY/WX    TMP DP  RH WIND       PRES   REMARKS
WICHITA FALLS  CLOUDY    71  66  84 S9        29.90S
6HR MIN TEMP:  71; 6HR MAX TEMP:  81;

WF-KICKAPOO    CLOUDY    75  67  77 S7        29.92R
6HR MIN TEMP:  75; 6HR MAX TEMP:  84;

VERNON         CLOUDY    74  64  69 SE7       29.91R
6HR MIN TEMP:  62; 6HR MAX TEMP:  85;

ABILENE        CLOUDY    76  66  71 SE6       29.92F
6HR MIN TEMP:  75; 6HR MAX TEMP:  82;

ABILENE-DYESS  CLOUDY    77  64  63 S3        29.91F
6HR MIN TEMP:  76; 6HR MAX TEMP:  82;

BRECKENRIDGE   CLOUDY    75  67  74 SE10      29.90F
GRAHAM         MOCLDY    73  68  84 SE8       29.89S
6HR MIN TEMP:  73; 6HR MAX TEMP:  83;

MINERAL WELLS  CLOUDY    72  67  84 SE9       29.91S
6HR MIN TEMP:  72; 6HR MAX TEMP:  81;

STEPHENVILLE   PTCLDY    71  66  83 CALM      29.96S
6HR MIN TEMP:  71; 6HR MAX TEMP:  81;

COMANCHE       CLOUDY    71  68  92 SE6       29.94S
6HR MIN TEMP:  71; 6HR MAX TEMP:  84;

BROWNWOOD      CLOUDY    72  66  83 CALM      29.94R
COLEMAN        MOCLDY    73  67  83 S5        29.94S
6HR MIN TEMP:  73; 6HR MAX TEMP:  86;

$$

TXZ143>147-156>162-174-175-310700-
CENTRAL TEXAS

CITY           SKY/WX    TMP DP  RH WIND       PRES   REMARKS
WACO           CLOUDY    76  67  73 S12       29.91F
6HR MIN TEMP:  75; 6HR MAX TEMP:  84;

WACO-MCGREGOR  PTCLDY    73  69  87 S7        29.92F
6HR MIN TEMP:  73; 6HR MAX TEMP:  85;

HILLSBORO      MOCLDY    72  67  84 SE6       29.93S
MEXIA          MOCLDY    72  68  88 SE6       29.92F
6HR MIN TEMP:  72; 6HR MAX TEMP:  84;

HEARNE         MOCLDY    74  70  88 CALM      29.94F
6HR MIN TEMP:  74; 6HR MAX TEMP:  84;

CAMERON        CLOUDY    76  71  85 S6        29.91F
6HR MIN TEMP:  76; 6HR MAX TEMP:  85;

TEMPLE         MOCLDY    75  70  84 SE9       29.92F
6HR MIN TEMP:  74; 6HR MAX TEMP:  84;

KILLEEN        MOCLDY    72  70  91 S2        29.92S
6HR MIN TEMP:  72; 6HR MAX TEMP:  84;

KILLEEN-SKYLRK   N/A     75  71  87 S8        29.92F
6HR MIN TEMP:  75; 6HR MAX TEMP:  86;

FORT HOOD      CLOUDY    73  70  89 S7        29.90F
6HR MIN TEMP:  73; 6HR MAX TEMP:  84;

GATESVILLE     PTCLDY    73  68  83 CALM      29.94S
HAMILTON       PTCLDY    72  67  85 S7        29.95R
6HR MIN TEMP:  71; 6HR MAX TEMP:  83;

LAMPASAS       CLOUDY    72  69  90 CALM      29.92S
6HR MIN TEMP:  71; 6HR MAX TEMP:  84;

$$

TXZ095>097-106>112-122>126-135>138-148>153-164>167-310700-
EAST TEXAS

CITY           SKY/WX    TMP DP  RH WIND       PRES   REMARKS
PARIS          CLOUDY    70  61  73 E8        29.92F
6HR MIN TEMP:  70; 6HR MAX TEMP:  82;

SULPHUR SPRNGS FOG       71  71  99 CALM      29.94S VSB 1/2
6HR MIN TEMP:  71; 6HR MAX TEMP:  82;

MOUNT PLEASANT CLOUDY    71  71 100 NE3       29.94S
6HR MIN TEMP:  70; 6HR MAX TEMP:  79;

GILMER         CLOUDY    72  70  94 CALM      29.92F
MINEOLA        MOCLDY    75  70  83 S3        29.93S
TYLER          MOCLDY    75  69  81 S8        29.92F
6HR MIN TEMP:  75; 6HR MAX TEMP:  84;

LONGVIEW         N/A     74  68  81 SW9       29.92R
6HR MIN TEMP:  71; 6HR MAX TEMP:  83;

MARSHALL       CLEAR     70  68  93 CALM      29.95R
6HR MIN TEMP:  70; 6HR MAX TEMP:  80;

ATHENS         CLOUDY    73  72  94 S5        29.92S
PALESTINE      MOCLDY    74  70  86 S5        29.95S
JACKSONVILLE   PTCLDY    72  69  90 S7        29.96F
HENDERSON      PTCLDY    73  67  82 CALM      29.94S
6HR MIN TEMP:  71; 6HR MAX TEMP:  82;

CENTER         FAIR      75  73  92 CALM      29.93S
6HR MIN TEMP:  74; 6HR MAX TEMP:  85;

NACOGDOCHES    CLOUDY    68  66  94 S5        29.93F
6HR MIN TEMP:  66; 6HR MAX TEMP:  82;

LUFKIN         CLOUDY    69  67  93 CALM      29.94F
6HR MIN TEMP:  69; 6HR MAX TEMP:  84;

$$

SUPPLEMENTAL OBSERVATIONS (CENTRAL)

CITY           SKY/WX    TMP DP  RH WIND       PRES   REMARKS
LAKE TEXOMA      N/A     72  68  88 SE2         N/A
CADDO GRASSLND   N/A     70  66  88 SE3         N/A
PAT MAYSE LAKE   N/A     70  68  94 E6          N/A
GREENVILLE       N/A     72  68  88 CALM        N/A
CEDAR HILL       N/A     75  66  73 SE3         N/A
ATHENS           N/A     75  70  83 S7          N/A
LAKE LIMESTONE   N/A     73  70  88 SE2         N/A
MCGREGOR         N/A     75  68  78 S10         N/A
TC1F1C2F2C3F3C4F4C5F5C6F6C7F7C8F8C9!



USA.gov is the U.S. government's official web portal to all federal, state and local government web resources and services.